Location: Arnolds Mill
(42.3415°N, 73.5951°W)
Time: 10:42:37
(UTC+00:00)

Envisat - Visible Passes

Search period start: 23 June 2024 00:00
Search period end: 03 July 2024 00:00
Orbit: 762 x 764 km, 98.3° (Epoch: 22 June)

Date Brightness Start Highest point End Pass type
(mag) Time Alt. Az. Time Alt. Az. Time Alt. Az.
23 Jun 5.2 07:06:52 10° NE 07:10:32 20° E 07:14:11 10° SE visible
24 Jun 3.2 08:07:22 10° NNE 08:12:28 75° ESE 08:17:31 10° S visible
25 Jun 4.4 07:30:23 10° NNE 07:34:57 33° E 07:39:30 10° SSE visible
26 Jun 5.4 06:54:23 10° NE 06:57:15 15° E 07:00:05 10° SE visible
26 Jun 3.1 08:31:37 10° N 08:36:39 66° WNW 08:41:40 10° SSW visible
27 Jun 3.6 07:54:17 10° NNE 07:59:17 56° E 08:04:15 10° S visible
28 Jun 4.8 07:17:32 10° NE 07:21:43 25° E 07:25:52 10° SSE visible
29 Jun 5.6 06:42:37 10° ENE 06:43:55 11° E 06:45:14 10° ESE visible
29 Jun 3.0 08:18:26 10° NNE 08:23:32 86° W 08:28:36 10° SSW visible
30 Jun 4.0 07:41:16 10° NNE 07:46:05 42° E 07:50:53 10° S visible
01 Jul 5.2 07:04:51 10° NE 07:08:27 19° E 07:12:01 10° SE visible
01 Jul 3.3 08:42:47 10° N 08:47:41 51° WNW 08:52:34 10° SW visible
02 Jul 3.2 08:05:18 10° NNE 08:10:23 73° ESE 08:15:26 10° S visible
